Zurück zum Katalog

COSMOS 970 DEB

AktivLEO
NORAD 14444·DEBRIS·🇷🇺 Russia

Gestartet Dec 21, 1977 von Baikonur Cosmodrome

Loading…

Nächste Überflüge (nächste 24 Stunden)

TLE

AktuellSource: Space-Track

Epoche: Sep 14, 2026, 05:19 UTC

1 14444U 77121BG  26257.22195331  .00000644  00000-0  71421-3 0  9995
2 14444  65.7989 345.2057 0063146 276.0287 109.2790 13.77802507248777

Verfolge COSMOS 970 DEB in Echtzeit mit AllMySat

Download on the App Store